Fort Benning, AL

8:24 PM CDT on July 26, 2017 (GMT -0500)
Lawson Army Air Field

Weather History for KLSF - January, 2014

Change the Weather History Date:

Saturday, January 4, 2014

  Actual Average Record
Temperature  
Mean Temperature 31 °F -  
Max Temperature 43 °F 57 °F 78 °F (1997)
Min Temperature 19 °F 32 °F 15 °F (2002)
Degree Days  
Heating Degree Days 34    
Moisture  
Dew Point 29 °F    
Average Humidity 77    
Maximum Humidity 99    
Minimum Humidity 60    
Precipitation  
Precipitation 0.00 in - - ()
Sea Level Pressure  
Sea Level Pressure 30.30 in    
Wind  
Wind Speed 3 mph (NE)    
Max Wind Speed 9 mph    
Max Gust Speed -    
Visibility 10 miles    
Events      
Averages and records for this station are not official NWS values.
T = Trace of Precipitation, MM = Missing Value Source: NWS Daily Summary

Daily Weather History Graph

Daily Weather History Graph

Search for Another Location

Airport or City:

Trip Planner

Search our weather history database for the weather conditions in past years. The results will help you decide how hot, cold, wet, or windy it might be!

Date:

Astronomy

Jan. 04, 2014 Rise Set
Actual Time 7:41 AM EST 5:48 PM EST
Civil Twilight 7:14 AM EST 6:15 PM EST
Nautical Twilight 6:44 AM EST 6:45 PM EST
Astronomical Twilight 6:14 AM EST 7:15 PM EST
Moon 10:00 AM EST (1/4) 9:51 PM EST (1/4)
Length of Visible Light 11h 00m
Length of Day
10h 06m
Waxing Crescent, 15% of the Moon is Illuminated
Jan 4
Waxing Crescent
Jan 7
First Quarter
Jan 15
Full
Jan 24
Last Quarter
Jan 30
New

Hourly Weather History & Observations

Time (EST) Temp. Windchill Dew Point Humidity Pressure Visibility Wind Dir Wind Speed Gust Speed Precip Events Conditions
12:58 AM 22.6 °F - 21.2 °F 94% 30.41 in 10.0 mi Calm Calm - N/A   Clear
1:58 AM 21.7 °F - 21.2 °F 98% 30.40 in 10.0 mi Calm Calm - N/A   Clear
2:58 AM 20.8 °F - 20.5 °F 99% 30.38 in 10.0 mi WNW 1.2 mph - N/A   Clear
3:58 AM 19.8 °F 13.2 °F 19.2 °F 98% 30.37 in 10.0 mi WNW 4.6 mph - N/A   Clear
4:58 AM 21.6 °F - 19.6 °F 92% 30.37 in 10.0 mi NW 2.3 mph - N/A   Partly Cloudy
5:58 AM 21.2 °F - 19.0 °F 91% 30.37 in 10.0 mi West 1.2 mph - N/A   Mostly Cloudy
6:03 AM 21.2 °F - 19.4 °F 93% 30.35 in 10.0 mi Calm Calm - N/A   Mostly Cloudy
6:58 AM 25.9 °F 21.7 °F 22.8 °F 88% 30.39 in 10.0 mi WNW 3.5 mph - N/A   Overcast
7:33 AM 28.4 °F - 24.8 °F 86% 30.37 in 10.0 mi WNW 2.3 mph - N/A   Overcast
7:58 AM 28.4 °F - 24.6 °F 86% 30.39 in 10.0 mi NW 2.3 mph - N/A   Overcast
8:58 AM 30.2 °F - 21.2 °F 69% 30.40 in 10.0 mi North 2.3 mph - N/A   Overcast
9:03 AM 30.2 °F - 23.0 °F 75% 30.38 in 10.0 mi North 2.3 mph - N/A   Overcast
9:58 AM 32.5 °F - 22.3 °F 66% 30.41 in 10.0 mi NE 1.2 mph - N/A   Overcast
10:23 AM 33.8 °F 30.8 °F 23.0 °F 65% 30.39 in 10.0 mi ENE 3.5 mph - N/A   Overcast
10:48 AM 35.6 °F 32.8 °F 23.0 °F 60% 30.38 in 10.0 mi North 3.5 mph - N/A   Overcast
10:58 AM 35.4 °F - 22.6 °F 60% 30.40 in 10.0 mi Variable 2.3 mph - N/A   Overcast
11:48 AM 37.4 °F 32.8 °F 26.6 °F 65% 30.36 in 10.0 mi ENE 5.8 mph - N/A   Overcast
11:58 AM 38.7 °F 34.3 °F 26.6 °F 62% 30.37 in 10.0 mi ENE 5.8 mph - N/A   Overcast
12:48 PM 41.0 °F 35.8 °F 30.2 °F 65% 30.31 in 10.0 mi ENE 8.1 mph - N/A   Overcast
12:58 PM 41.2 °F 37.3 °F 30.4 °F 65% 30.32 in 10.0 mi ENE 5.8 mph - N/A   Overcast
1:28 PM 42.8 °F 38.6 °F 32.0 °F 66% 30.28 in 10.0 mi NE 6.9 mph - N/A   Overcast
1:58 PM 42.3 °F 39.4 °F 31.5 °F 66% 30.30 in 10.0 mi Variable 4.6 mph - N/A   Overcast
2:58 PM 43.0 °F 39.5 °F 32.0 °F 65% 30.29 in 10.0 mi NNE 5.8 mph - N/A   Overcast
3:33 PM 42.8 °F 39.3 °F 32.0 °F 66% 30.26 in 10.0 mi NNE 5.8 mph - N/A   Overcast
3:58 PM 43.0 °F 40.3 °F 32.2 °F 66% 30.28 in 10.0 mi North 4.6 mph - N/A   Overcast
4:58 PM 42.8 °F 40.1 °F 32.9 °F 68% 30.28 in 10.0 mi North 4.6 mph - N/A   Overcast
5:58 PM 42.3 °F 40.5 °F 33.3 °F 70% 30.26 in 10.0 mi NNE 3.5 mph - N/A   Overcast
6:58 PM 42.1 °F 39.2 °F 32.7 °F 69% 30.28 in 10.0 mi NE 4.6 mph - N/A   Overcast
7:58 PM 41.7 °F 39.8 °F 33.1 °F 71% 30.26 in 10.0 mi NE 3.5 mph - N/A   Overcast
8:58 PM 42.3 °F 40.5 °F 34.5 °F 74% 30.25 in 10.0 mi NE 3.5 mph - N/A   Overcast
9:18 PM 42.8 °F 41.1 °F 35.6 °F 76% 30.22 in 10.0 mi ENE 3.5 mph - N/A   Overcast
9:23 PM 42.8 °F - 35.6 °F 76% 30.23 in 10.0 mi ENE 2.3 mph - N/A   Overcast
9:58 PM 43.2 °F 39.0 °F 36.7 °F 78% 30.24 in 10.0 mi East 6.9 mph - N/A   Overcast
10:08 PM 42.8 °F 41.1 °F 37.4 °F 81% 30.22 in 10.0 mi East 3.5 mph - N/A   Overcast
10:28 PM 42.8 °F 37.5 °F 37.4 °F 81% 30.21 in 10.0 mi East 9.2 mph - N/A   Overcast
10:48 PM 42.8 °F 38.6 °F 37.4 °F 81% 30.20 in 10.0 mi East 6.9 mph - N/A   Overcast
10:58 PM 42.8 °F 39.3 °F 37.4 °F 81% 30.21 in 10.0 mi East 5.8 mph - N/A   Overcast
11:03 PM 42.8 °F 39.3 °F 37.4 °F 81% 30.19 in 10.0 mi East 5.8 mph - N/A   Overcast
11:08 PM 42.8 °F 39.3 °F 37.4 °F 81% 30.19 in 10.0 mi East 5.8 mph - N/A   Overcast
11:18 PM 42.8 °F 39.3 °F 37.4 °F 81% 30.18 in 10.0 mi East 5.8 mph - N/A   Overcast
11:53 PM 42.8 °F 41.1 °F 37.4 °F 81% 30.17 in 10.0 mi East 3.5 mph - N/A   Overcast
11:58 PM 42.4 °F - 37.4 °F 82% 30.19 in 10.0 mi Variable 2.3 mph - N/A   Overcast